x

Orange Beach - 44 Nm Se Of Mobile, Al (42012) Wave Buoy

4:50pm - Sun 1st Mar 2015 All times are CST. -6 hours from GMT.

  • Sig Wave height 3.6ft
  • Swell Direction
  • Peak Period 6s
  • Average Period 4s
  • Wind
    18mph, 20mph gusts
  • Sea Temp 62°f
  • Air Temp 58°f
  • Sea Pressure 1024.7mb
  • Orange Beach - 44 Nm Se Of Mobile, Al
  • Orange Beach - 44 Nm Se Of Mobile, Al

More Historic Weather Station data

Upgrade to MSW Pro to gain access to the past 30 days of data for over 8000 Wavebouys and Weather Stations around the globe.

Join Pro

Comparision Forecast

View Surf forecast
   
Sun 03/01 4:50pm 3.5ft 6s 4s 18 20 mph 1024.7mb 62f 58f
3:50pm 3.5ft 6s 4s 18 20 mph 1024.9mb 62f 58f
2:50pm 3.5ft 5s 4s 18 20 mph 1025mb 62f 57f
1:50pm 3.5ft 6s 4s 16
mph
1025.5mb 62f 57f
12:50pm 4ft 6s 5s 16 18 mph 1026.2mb 61f 57f
11:50am 4ft 6s 5s 13 16 mph 1027mb 61f 60f
10:50am 4ft 5s 4s 16 18 mph 1027.5mb 61f 60f
9:50am 4.5ft 6s 5s 16 18 mph 1027.6mb 61f 60f
8:50am 4.5ft 6s 5s 16 18 mph 1027.7mb 61f 59f
7:50am 5ft 7s 5s 18 22 mph 1027.1mb 61f 59f
6:50am 5ft 6s 5s 20 22 mph 1026.9mb 61f 58f
5:50am 5ft 7s 5s 20 25 mph 1026.6mb 61f 57f
4:50am 5ft 7s 5s 20 22 mph 1026.4mb 61f 56f
3:50am 6ft 7s 5s 18 22 mph 1026.4mb 61f 57f
2:50am 5.5ft 7s 5s 20 22 mph 1026.8mb 61f 56f
1:50am 6ft 7s 5s 20 25 mph 1026.8mb 61f 56f
12:50am 5.5ft 7s 5s 20 25 mph 1027.2mb 61f 56f
Sat 02/28 11:50pm 5ft 7s 5s 22 27 mph 1027.3mb 61f 56f
10:50pm 5ft 6s 5s 20 25 mph 1028.4mb 61f 56f
9:50pm 5ft 7s 5s 22 27 mph 1028.4mb 61f 56f
8:50pm 5ft 7s 5s 20 25 mph 1028.3mb 61f 57f
7:50pm 5ft 6s 5s 20 25 mph 1027.6mb 61f 57f
6:50pm 5ft 6s 5s 22 25 mph 1026.8mb 61f 58f
5:50pm 4.5ft 7s 5s 20 25 mph 1026.3mb 62f 58f
4:50pm 4.5ft 6s 5s 22 25 mph 1026.1mb 62f 58f
3:50pm 4.5ft 7s 5s 20 25 mph 1026.3mb 62f 57f
2:50pm 4ft 6s 5s 20 22 mph 1026.4mb 62f 56f
1:50pm 4.5ft 6s 5s 20 22 mph 1026.8mb 62f 55f
12:50pm 5ft 6s 5s 20 22 mph 1027.6mb 62f 55f
11:50am 5ft 7s 5s 20 25 mph 1028mb 62f 54f
10:50am 4.5ft 7s 5s 22 27 mph 1028.7mb 62f 53f
9:50am 5ft 7s 5s 20 25 mph 1029.2mb 62f 50f
8:50am 5ft 6s 5s 22 27 mph 1029.3mb 62f 48f
7:50am 4.5ft 6s 5s 22 25 mph 1029.1mb 62f 47f
6:50am 4ft 6s 5s 20 22 mph 1028.2mb 62f 48f
5:50am 4ft 6s 5s 20 25 mph 1027.7mb 62f 51f
4:50am 4ft 6s 4s 18 22 mph 1027.1mb 62f 51f
3:50am 4ft 5s 4s 18 22 mph 1027.2mb 62f 52f
2:50am 4.5ft 5s 4s 22 25 mph 1026.5mb 62f 53f
1:50am 4.5ft 5s 4s 25 29 mph 1026.7mb 62f 51f
12:50am 4ft 5s 4s 25 29 mph 1027.1mb 62f 51f
Fri 02/27 11:50pm 3.5ft 5s 4s 25 27 mph 1027.8mb 62f 51f
10:50pm 3.5ft 4s 4s 27 31 mph 1027.5mb 62f 52f
9:50pm 2.5ft 5s 4s 25 29 mph 1027.4mb 62f 53f
8:50pm 2.5ft 4s 4s 22 25 mph 1027mb 62f 55f
7:50pm 2ft 4s 4s 18 20 mph 1026.5mb 62f 57f
6:50pm 2.5ft 4s 4s 16 18 mph 1025.7mb 62f 57f
5:50pm 2.5ft 4s 4s 18 20 mph 1025mb 62f 57f
4:50pm 2.5ft 4s 4s 18 20 mph 1024.6mb 62f 56f
3:50pm 2.5ft 4s 4s 16 18 mph 1024.4mb 62f 55f
2:50pm 2.5ft 5s 4s 18 20 mph 1024.7mb 62f 54f
1:50pm 2.5ft 4s 4s 16 22 mph 1025.2mb 62f 52f
12:50pm 2.5ft 5s 4s 13 18 mph 1026.2mb 62f 50f
11:50am 3ft 5s 4s 16 20 mph 1026.8mb 62f 48f
10:50am 3ft 4s 4s 20 25 mph 1027mb 62f 46f
9:50am 3.5ft 4s 4s 20 25 mph 1027.4mb 61f 44f
8:50am 3.5ft 4s 4s 20 25 mph 1027.6mb 61f 42f
7:50am 4ft 4s 4s 22 29 mph 1027.1mb 62f 41f
6:50am 3.5ft 5s 4s 27 31 mph 1026mb 62f 41f
5:50am 3.5ft 4s 4s 25 29 mph 1025.7mb 62f 41f
4:50am 3.5ft 5s 4s 22 27 mph 1025.2mb 62f 42f
3:50am 3.5ft 5s 4s 25 29 mph 1024.3mb 62f 42f
2:50am 3.5ft 5s 4s 22 29 mph 1024mb 62f 43f
1:50am 3.5ft 4s 4s 22 27 mph 1023.4mb 62f 44f
12:50am 3ft 4s 4s 22 27 mph 1022.9mb 62f 46f
Thu 02/26 11:50pm 2.5ft 4s 3s 25 27 mph 1022.9mb 62f 46f
10:50pm 2ft 7s 4s 20 27 mph 1022.5mb 62f 48f
9:50pm 2ft 7s 4s 18 22 mph 1022mb 62f 48f
8:50pm 2ft 7s 4s 16 20 mph 1021.2mb 62f 48f
7:50pm 2.5ft 8s 4s 16 20 mph 1020.4mb 62f 48f
6:50pm 2.5ft 8s 4s 18 22 mph 1019.5mb 62f 47f
5:50pm 2.5ft 7s 4s 16 20 mph 1018.6mb 62f 46f
4:50pm 2.5ft 8s 4s 16 20 mph 1017.6mb 62f 47f
3:50pm 2.5ft 8s 5s 16 20 mph 1016.6mb 62f 48f
2:50pm 2.5ft 8s 5s 9 13 mph 1016.4mb 62f 46f
1:50pm 3ft 8s 5s 13 16 mph 1015.8mb 62f 44f
12:50pm 3.5ft 9s 5s 13 18 mph 1016mb 62f 44f
11:50am 3.5ft 8s 5s 13 18 mph 1015.8mb 62f 44f
10:50am 3.5ft 8s 5s 11 18 mph 1016.6mb 62f 42f
9:50am 4ft 8s 6s 13 18 mph 1015.6mb 62f 41f
8:50am 4.5ft 8s 5s 11 18 mph 1014.8mb 62f 41f
7:50am 4.5ft 8s 5s 16 22 mph 1013.4mb 62f 42f
6:50am 5ft 8s 5s 16 22 mph 1012.1mb 62f 42f
5:50am 5ft 8s 5s 18 25 mph 1010.8mb 62f 42f
4:50am 5ft 8s 5s 22 27 mph 1009.5mb 62f 42f
3:50am 5ft 8s 5s 22 29 mph 1008.8mb 62f 43f
2:50am 5ft 8s 5s 25 29 mph 1008.2mb 62f 45f
1:50am 5.5ft 8s 6s 18 22 mph 1008.4mb 62f 45f
12:50am 5ft 8s 5s 20 25 mph 1007.8mb 63f 45f
Wed 02/25 11:50pm 4.5ft 8s 5s 18 25 mph 1007.2mb 63f 45f